Home > Weather > Irvine > Past weeks

Flag for USA Past Weather in Irvine, California, USA — Yesterday and Last 2 Weeks

Now
80 °F

Passing clouds.


Feels Like: 82 °F
Forecast: 67 / 86 °F
Wind: 9 mph from Southwest

Location: John Wayne Airport-Orange County Airport

Current Time: Jul 29, 2016 at 4:38:28 PM

Latest Report: Jul 29, 2016 at 3:53 PM


Visibility: 10 mi

Pressure: 29.79 "Hg

Humidity: 62%

Dew Point: 66 °F

Location of IrvineLocation

Past Weather in Irvine — Graph

°F

Irvine Temperature Yesterday

Maximum temperature yesterday: 83 °F (at 1:53 PM)
Minimum temperature yesterday: 69 °F (at 3:53 AM)
Average temperature yesterday: 74 °F

High & Low Weather Summary for the Past Weeks

 TemperatureHumidityPressure
High90 °F (Jul 22, 11:53 AM)93% (Jul 24, 2:53 AM)30.02 "Hg (Jul 24, 2:53 AM)
Low65 °F (Jul 17, 12:53 AM)33% (Jul 20, 3:53 PM)29.79 "Hg (Jul 23, 3:53 AM)
Average74 °F69%29.91 "Hg
* Reported Jul 14 2:53 PM — Jul 29 2:53 PM, Irvine, Weather by CustomWeather, © 2016

Note: Actual official high and low records may vary slightly from our data, if they occured in-between our weather recording intervals... More about our weather records

Advertising

Irvine Weather History for the Previous 24 Hours

Scroll right to see more
 ConditionsComfort  
Time TempWeatherWind HumidityBarometerVisibility
2:53 PM
Fri, Jul 29
79 °FPassing clouds.8 mph65%29.80 "Hg10 mi
1:53 PM80 °FPassing clouds.10 mph60%29.82 "Hg9 mi
12:53 PM80 °FPassing clouds.10 mph62%29.83 "Hg10 mi
11:53 AM80 °FPassing clouds.10 mph62%29.83 "Hg9 mi
10:53 AM80 °FPassing clouds.10 mph62%29.83 "Hg9 mi
9:53 AM79 °FSunny.6 mph62%29.83 "Hg8 mi
8:53 AM75 °FSunny.5 mph74%29.84 "Hg7 mi
7:53 AM73 °FSunny.No wind79%29.83 "Hg7 mi
6:53 AM75 °FClear.No wind74%29.83 "Hg7 mi
5:53 AM75 °FClear.No wind74%29.82 "Hg8 mi
11:53 PM
Thu, Jul 28
70 °FClear.5 mph87%29.84 "Hg10 mi
10:53 PM71 °FFog.7 mph87%29.84 "Hg6 mi
9:53 PM72 °FPassing clouds.6 mph84%29.84 "Hg7 mi
8:53 PM72 °FPassing clouds.5 mph81%29.83 "Hg7 mi
7:53 PM74 °FPassing clouds.8 mph74%29.82 "Hg10 mi
6:53 PM75 °FPassing clouds.8 mph69%29.81 "Hg10 mi
5:53 PM78 °FPassing clouds.9 mph60%29.81 "Hg10 mi
4:53 PM78 °FPassing clouds.10 mph62%29.82 "Hg10 mi
Weather by CustomWeather, © 2016

See weather overviewHow to use our weather pages